Regional Weather Roundup
Issued by NWS

Home | Current Version | Previous Version | Text Only | Print | Product List | Glossary Off
Versions: 1 2 3 4 5 6 7 8 9 10 11 12 13 14 15 16 17 18 19 20 21 22 23 24 25 26 27 28 29 30 31 32 33 34 35 36 37 38 39 40 41 42 43 44 45 46 47 48 49 50

000
ASUS43 KDTX 050310
RWRMI
MICHIGAN HOURLY REGIONAL WEATHER ROUNDUP
NATIONAL WEATHER SERVICE DETROIT/PONTIAC MI
1100 PM EDT SAT JUL 04 2015

NOTE: "FAIR" INDICATES FEW OR NO CLOUDS BELOW 12,000 FEET WITH NO
SIGNIFICANT WEATHER AND/OR OBSTRUCTION TO VISIBILITY.

MIZ047>049-052>055-059>063-066>070-074>076-081>083-050400-
SOUTHEAST LOWER MICHIGAN

CITY           SKY/WX    TMP DP  RH WIND       PRES   REMARKS
ADRIAN         CLEAR     65  59  81 CALM      30.05R
ALMA           PTCLDY    68  62  79 SW3       30.03R
ANN ARBOR      CLEAR     58  57  97 CALM      30.04R
BAD AXE        MOCLDY    67  58  73 CALM      30.01R
CARO           PTCLDY    63  59  87 CALM      30.01R
DETROIT CITY   CLEAR     69  55  60 S5        30.03R
DETROIT        MOCLDY    69  59  70 S5        30.04R
FLINT          CLEAR     65  59  81 SW5       30.03R
GROSSE ILE     CLEAR     70  64  83 S5        30.03R
HILLSDALE      CLEAR     63  62  96 CALM      30.06R
HOWELL         CLEAR     65  59  79 CALM      30.03R

CITY           SKY/WX    TMP DP  RH WIND       PRES   REMARKS
JACKSON        CLEAR     63  59  87 CALM      30.04R
LAMBERTVILLE   CLEAR     65  59  82 CALM      30.05R HAZE
LANSING        CLEAR     69  59  70 NW3       30.04R
LAPEER         FAIR      59  57  92 CALM      30.03R
MASON          CLEAR     62  58  87 CALM      30.04R
MONROE         CLEAR     66  60  79 CALM      30.04R
MT. CLEMENS    CLEAR     65  56  74 SE2       30.01R
PONTIAC        CLOUDY    66  58  75 VRB5      30.03R SMOKE
PORT HOPE        N/A     64  60  87 E8        30.00R
PORT HURON     CLEAR     59  57  94 CALM      30.03R
TRI CITIES     MOCLDY    74  60  61 SW9       30.01R
MIDLAND        FAIR      72  61  68 SW5       29.99R
TROY           CLEAR     71  56  58 CALM      30.05R
SAGINAW HB     PTCLDY    70  55  60 SW6       30.00R
$$
MIZ043>046-050>051-056>058-064>065-071>073-077>080-050400-
SOUTHWEST LOWER MICHIGAN

CITY           SKY/WX    TMP DP  RH WIND       PRES   REMARKS
BATTLE CREEK   CLEAR     67  59  75 SW3       30.05R HAZE
BENTON HARBOR  CLEAR     59  56  89 E3        30.04R FOG
BIG RAPIDS     CLEAR     65  59  81 CALM      30.03R
COLDWATER      CLEAR     63  59  86 W3        30.05R
FREMONT        FAIR      62  59  88 CALM      30.03R
HOLLAND        CLEAR     63  59  87 CALM      30.03R
GRAND RAPIDS   PTCLDY    69  59  70 W3        30.04R
IONIA          FAIR      68  60  75 CALM      30.03R
KALAMAZOO      CLEAR     65  58  78 S3        30.04R
LUDINGTON      CLEAR     58  56  91 CALM      30.03R
MARSHALL       CLEAR     63  59  85 CALM      30.04R
MOUNT PLEASANT PTCLDY    70  62  76 SW5       30.01R
MUSKEGON       MOCLDY    64  57  78 CALM      30.03R
SOUTH HAVEN    CLEAR     60  57  91 CALM      30.03R
$$
MIZ016>042-050400-
NORTHERN LOWER MICHIGAN

CITY           SKY/WX    TMP DP  RH WIND       PRES   REMARKS
ALPENA         CLEAR     59  54  83 CALM      30.03R
BEAVER ISLAND    N/A     55  54  96 CALM      30.02R FOG
BELLAIRE       CLEAR     59  57  93 CALM      30.02R
CADILLAC       CLEAR     60  57  90 CALM      30.04R
CHARLEVOIX     PTCLDY    60  57  90 CALM      30.05R
FRANKFORT      PTCLDY    61  55  79 CALM      30.03R HAZE
GAYLORD        CLEAR     61  58  90 CALM      30.04R
GRAYLING       CLEAR     58  56  91 CALM      30.04R
HARBOR SPRINGS CLEAR     58  57  94 CALM      30.02R
HOUGHTON LAKE  CLEAR     63  56  78 CALM      30.03R
MANISTEE       PTCLDY   N/A N/A N/A CALM      30.03R
OSCODA         CLEAR     59  54  84 N3        30.01R
PELLSTON       CLEAR     60  57  89 CALM      30.02R
ROGERS CITY    CLEAR     58  56  92 CALM      30.04R
TRAVERSE CITY  FAIR      63  59  87 CALM      30.01R
$$
MIZ007>008-015-050400-
EASTERN UPPER MICHIGAN

CITY           SKY/WX    TMP DP  RH WIND       PRES   REMARKS
KINROSS        CLEAR     55  54  94 CALM      30.03R
MACKINAC ISLAN CLEAR     59  58  95 NE5       30.02R
NEWBERRY       CLEAR     55  53  93 E3        30.02R
S. S. MARIE    CLEAR     52  50  93 SW3       30.02R
MUNISING         N/A     55  52  89 CALM      30.00R
$$
MIZ004>006-011>014-085-050400-
CENTRAL UPPER MICHIGAN

CITY           SKY/WX    TMP DP  RH WIND       PRES   REMARKS
MANISTIQUE     CLEAR     55  53  93 CALM      30.01R
ESCANABA       PTCLDY    61  59  94 CALM      29.99S
MENOMINEE      CLEAR     66  57  72 SE6       29.99R
SAWYER-GWINN   PTCLDY    61  54  77 SE3       30.01S
$$
MIZ001>003-009>011-084-050400-
WESTERN UPPER MICHIGAN

CITY           SKY/WX    TMP DP  RH WIND       PRES   REMARKS
IRON MOUNTAIN  PTCLDY    67  61  81 SE7       29.98R
HOUGHTON       PTCLDY    56  51  84 E8        29.96S
COPPER HARBOR    N/A     57  52  83 SW8G17    29.96R
IRONWOOD       PTCLDY    66  64  94 E5        29.90R
$$

ABBREVIATIONS USED IN REMARKS
   TC - TEMPERATURE IN CELSIUS
  WCI - WIND CHILL INDEX
   HX - HEAT INDEX
  VSB - VISIBILITY




USA.gov is the U.S. government's official web portal to all federal, state and local government web resources and services.